Regional Weather Roundup
Issued by NWS Sioux Falls, SD

Home | Current Version | Previous Version | Text Only | Print | Product List | Glossary Off
Versions: 1 2 3 4 5 6 7 8 9 10 11 12 13 14 15 16 17 18 19 20 21 22 23 24 25 26 27 28 29 30 31 32 33 34 35 36 37 38 39 40 41 42 43 44 45 46 47 48 49 50

000
ASUS43 KFSD 230910
RWRFSD

WEATHER ROUNDUP FOR SE SOUTH DAKOTA/SW MINNESOTA/NW IOWA
NATIONAL WEATHER SERVICE SIOUX FALLS SD
400 AM CDT TUE MAY 23 2017

NOTE: "FAIR" INDICATES FEW OR NO CLOUDS BELOW 12,000 FEET WITH NO
SIGNIFICANT WEATHER AND OR OBSTRUCTIONS TO VISIBILITY.


SDZ038>040-050-052>070-231000-
SOUTHEAST SOUTH DAKOTA

CITY           SKY/WX    TMP DP  RH WIND       PRES   REMARKS
BROOKINGS      CLOUDY    46  45  93 NW12      29.88S
CHAMBERLAIN    CLOUDY    50  45  83 SW6       29.96S
HURON          MOCLDY    46  45  96 NW9       29.93F
MADISON        CLOUDY    45  45 100 NW13      29.89F
MITCHELL       CLOUDY    49  45  86 W10       29.94S
SIOUX FALLS    CLOUDY    47  44  90 NW14      29.90S
WINNER         CLOUDY    51  44  77 W13       29.96F
YANKTON        CLOUDY    47  43  86 W10       29.93F
$$

MNZ071-072-080-081-089-090-097-098-231000-
SOUTHWEST MINNESOTA

CITY           SKY/WX    TMP DP  RH WIND       PRES   REMARKS
FAIRMONT       CLOUDY    50  45  83 NW12      29.84S
JACKSON        DRIZZLE   48  45  87 NW9       29.85S
LUVERNE        CLOUDY    45  41  87 NW7       29.88F
MARSHALL       CLOUDY    47  46  97 NW16      29.85F
PIPESTONE      RAIN      46  43  87 NW13      29.86F
REDWOOD FALLS  LGT RAIN  48  44  86 NW7       29.84S
TRACY          CLOUDY    47  46  94 NW6       29.85F
WINDOM         LGT RAIN  48  45  87 NW9       29.85S
WORTHINGTON    LGT RAIN  46  45  93 NW10      29.87S
$$

IAZ001>003-012>014-020>022-031-032-NEZ013-014-SDZ071-231000-
NORTHWEST IOWA

CITY           SKY/WX    TMP DP  RH WIND       PRES   REMARKS
CHEROKEE       CLOUDY    48  46  93 NW7       29.88S
DENISON        CLEAR     48  45  87 NW7       29.90S
ESTHERVILLE    CLOUDY    49  48  97 NW9       29.84S
LE MARS        PTCLDY    46  45  93 NW8       29.91S
ORANGE CITY    MOCLDY    46  43  87 NW8       29.90R
SHELDON        MOCLDY    46  43  87 NW10        N/A
SIOUX CITY     PTCLDY    47  44  90 NW8       29.91F
SPENCER        CLOUDY    49  47  93 NW12      29.85F
STORM LAKE     CLOUDY    50  46  87 W12       29.87S
$$

ABBREVIATIONS USED IN REMARKS
   TC - TEMPERATURE IN CELSIUS
  WCI - WIND CHILL INDEX
   HX - HEAT INDEX
  VSB - VISIBILITY




USA.gov is the U.S. government's official web portal to all federal, state and local government web resources and services.